Weather History for KICT - November, 2012

Change the Weather History Date:

Friday, November 9, 2012

  Actual Average Record
Temperature  
Mean Temperature 69 °F 49 °F  
Max Temperature 80 °F 60 °F 82 °F (2006)
Min Temperature 58 °F 38 °F 21 °F (1950)
Degree Days  
Heating Degree Days 0 16  
Month to date heating degree days 86 131  
Since 1 July heating degree days 346 417  
Cooling Degree Days 4 0  
Month to date cooling degree days 7 0  
Year to date cooling degree days 2308 1684  
Growing Degree Days 20 (Base 50)    
Moisture  
Dew Point 54 °F    
Average Humidity 59    
Maximum Humidity 75    
Minimum Humidity 42    
Precipitation  
Precipitation 0.00 in 0.05 in 1.13 in (1919)
Month to date precipitation 0.00 0.51  
Year to date precipitation 24.12 30.52  
Snow  
Snow 0.00 in 0.00 in 8.70 in (1888)
Month to date snowfall 0.0 0.1  
Since 1 July snowfall 0.0 0.2  
Since 1 September snowfall 0.0 0.2  
Snow Depth 0.00 in    
Sea Level Pressure  
Sea Level Pressure 29.73 in    
Wind  
Wind Speed 19 mph (South)    
Max Wind Speed 33 mph    
Max Gust Speed 46 mph    
Visibility 10 miles    
Events      
T = Trace of Precipitation, MM = Missing Value Source: NWS Daily Summary

Daily Weather History Graph

Daily Weather History Graph

Search for Another Location

Airport or City:

Trip Planner

Search our weather history database for the weather conditions in past years. The results will help you decide how hot, cold, wet, or windy it might be!

Date:

Astronomy

Nov. 09, 2012 Rise Set
Actual Time 7:03 AM CST 5:22 PM CST
Civil Twilight 6:36 AM CST 5:50 PM CST
Nautical Twilight 6:04 AM CST 6:21 PM CST
Astronomical Twilight 5:33 AM CST 6:52 PM CST
Moon 2:09 AM CST (11/9) 2:32 PM CST (11/9)
Length of Visible Light 11h 14m
Length of Day
10h 19m
Waning Crescent, 23% of the Moon is Illuminated
Nov 9
Waning Crescent
Nov 13
New
Nov 20
First Quarter
Nov 28
Full
Dec 6
Last Quarter

Hourly Weather History & Observations

Time (CST) Temp. Heat Index Dew Point Humidity Pressure Visibility Wind Dir Wind Speed Gust Speed Precip Events Conditions
12:53 AM 61.0 °F - 52.0 °F 72% 29.79 in 10.0 mi SSE 9.2 mph - N/A   Partly Cloudy
1:53 AM 59.0 °F - 52.0 °F 78% 29.78 in 10.0 mi SSE 10.4 mph - N/A   Partly Cloudy
2:53 AM 59.0 °F - 52.0 °F 78% 29.78 in 10.0 mi SSE 8.1 mph - N/A   Partly Cloudy
3:53 AM 59.0 °F - 52.0 °F 78% 29.77 in 10.0 mi SSE 10.4 mph - N/A   Scattered Clouds
4:53 AM 59.0 °F - 51.1 °F 75% 29.77 in 10.0 mi SSE 10.4 mph - N/A   Clear
5:53 AM 60.1 °F - 51.1 °F 72% 29.77 in 10.0 mi South 12.7 mph - N/A   Scattered Clouds
6:53 AM 61.0 °F - 51.1 °F 70% 29.78 in 10.0 mi South 15.0 mph - N/A   Mostly Cloudy
7:53 AM 64.0 °F - 52.0 °F 65% 29.79 in 10.0 mi South 15.0 mph - N/A   Mostly Cloudy
8:53 AM 66.0 °F - 52.0 °F 60% 29.79 in 10.0 mi South 19.6 mph 28.8 mph N/A   Mostly Cloudy
9:53 AM 69.1 °F - 53.1 °F 57% 29.79 in 10.0 mi South 20.7 mph 27.6 mph N/A   Mostly Cloudy
10:53 AM 73.9 °F - 55.0 °F 52% 29.78 in 10.0 mi South 21.9 mph 31.1 mph N/A   Scattered Clouds
11:53 AM 77.0 °F - 55.9 °F 48% 29.75 in 10.0 mi South 24.2 mph 31.1 mph N/A   Partly Cloudy
12:53 PM 78.1 °F - 55.9 °F 46% 29.72 in 10.0 mi South 24.2 mph 33.4 mph N/A   Partly Cloudy
1:53 PM 80.1 °F 80.2 °F 55.9 °F 43% 29.69 in 10.0 mi South 23.0 mph 35.7 mph N/A   Clear
2:53 PM 80.1 °F 80.2 °F 55.9 °F 43% 29.67 in 10.0 mi South 25.3 mph 36.8 mph N/A   Clear
3:53 PM 79.0 °F - 55.0 °F 44% 29.67 in 10.0 mi South 28.8 mph 36.8 mph N/A   Clear
4:53 PM 77.0 °F - 55.0 °F 47% 29.68 in 10.0 mi South 23.0 mph 33.4 mph N/A   Clear
5:53 PM 73.9 °F - 55.9 °F 53% 29.69 in 10.0 mi South 21.9 mph 28.8 mph N/A   Clear
6:53 PM 73.0 °F - 55.9 °F 55% 29.70 in 10.0 mi South 18.4 mph 26.5 mph N/A   Clear
7:53 PM 72.0 °F - 57.9 °F 61% 29.70 in 10.0 mi South 19.6 mph 29.9 mph N/A   Clear
8:53 PM 71.1 °F - 57.9 °F 63% 29.70 in 10.0 mi SSE 21.9 mph 31.1 mph N/A   Clear
9:53 PM 69.1 °F - 57.0 °F 65% 29.71 in 10.0 mi South 21.9 mph 29.9 mph N/A   Clear
10:53 PM 69.1 °F - 55.9 °F 63% 29.70 in 10.0 mi South 23.0 mph 29.9 mph N/A   Clear
11:53 PM 68.0 °F - 55.0 °F 63% 29.70 in 10.0 mi South 19.6 mph - N/A   Clear